When you browse on this site, cookies collect data to enhance your experience and personalize the content and advertising you see.
Visit our Privacy Policy to learn more. By continuing to use the site, you agree to this use of cookies and data.
  • In Hungary
  • List of Countries
  • For 7 days
  • Water Temperature
  • Satellite Maps
  • Weather Map
  • News
  • Weather Widgets
  • user-avatar
    Login

    Hourly Weather Puyang

    Today, 21 April, Sunday

    Time Temperature Precipitation Wind Pressure Humidity
    00:00 +16°C° 0 mm 3 mps 753 mmHg 35%
    01:00 +15°C° 0 mm 4 mps 753 mmHg 34%
    02:00 +17°C° 0 mm 4 mps 753 mmHg 31%
    03:00 +15°C° 0 mm 4 mps 754 mmHg 33%
    04:00 +15°C° 0 mm 4 mps 754 mmHg 35%
    05:00 +14°C° 0 mm 5 mps 754 mmHg 37%
    06:00 +14°C° 0 mm 5 mps 754 mmHg 44%
    07:00 +14°C° 0 mm 5 mps 755 mmHg 50%
    08:00 +14°C° 0 mm 4 mps 755 mmHg 61%
    09:00 +14°C° 0.5 mm 4 mps 755 mmHg 65%
    10:00 +14°C° 0.5 mm 4 mps 755 mmHg 70%
    11:00 +14°C° 0.5 mm 4 mps 755 mmHg 74%
    12:00 +15°C° 0.3 mm 4 mps 755 mmHg 71%
    13:00 +17°C° 0.3 mm 4 mps 755 mmHg 68%
    14:00 +18°C° 0.3 mm 4 mps 755 mmHg 65%
    15:00 +19°C° 0 mm 3 mps 755 mmHg 61%
    16:00 +19°C° 0 mm 3 mps 755 mmHg 58%
    17:00 +20°C° 0 mm 3 mps 754 mmHg 54%
    18:00 +19°C° 0 mm 2 mps 754 mmHg 59%
    19:00 +19°C° 0 mm 1 mps 754 mmHg 64%
    20:00 +15°C° 0 mm 0 mps 755 mmHg 68%
    21:00 +15°C° 0 mm 0 mps 755 mmHg 70%
    22:00 +15°C° 0 mm 0 mps 755 mmHg 71%
    23:00 +14°C° 0 mm 0 mps 756 mmHg 72%

    Tomorrow, 22 April, Monday

    Time Temperature Precipitation Wind Pressure Humidity
    00:00 +14°C° 0 mm 0 mps 756 mmHg 73%
    01:00 +14°C° 0 mm 0 mps 755 mmHg 74%
    02:00 +14°C° 0 mm 0 mps 755 mmHg 75%
    03:00 +15°C° 0 mm 1 mps 755 mmHg 80%
    04:00 +14°C° 0 mm 1 mps 755 mmHg 85%
    05:00 +14°C° 0 mm 1 mps 755 mmHg 90%
    06:00 +15°C° 0 mm 2 mps 755 mmHg 87%
    07:00 +16°C° 0 mm 2 mps 755 mmHg 84%
    08:00 +18°C° 0 mm 2 mps 755 mmHg 82%
    09:00 +19°C° 0 mm 3 mps 755 mmHg 76%
    10:00 +21°C° 0 mm 3 mps 755 mmHg 71%
    11:00 +22°C° 0 mm 3 mps 755 mmHg 65%
    12:00 +22°C° 0 mm 3 mps 755 mmHg 65%
    13:00 +24°C° 0 mm 3 mps 754 mmHg 65%
    14:00 +24°C° 0 mm 3 mps 754 mmHg 64%
    15:00 +24°C° 0 mm 3 mps 753 mmHg 63%
    16:00 +25°C° 0 mm 3 mps 753 mmHg 61%
    17:00 +25°C° 0 mm 3 mps 752 mmHg 60%
    18:00 +24°C° 0 mm 2 mps 752 mmHg 67%
    19:00 +21°C° 0 mm 2 mps 753 mmHg 74%
    20:00 +20°C° 0 mm 1 mps 753 mmHg 81%
    21:00 +19°C° 0 mm 2 mps 753 mmHg 84%
    22:00 +18°C° 0 mm 2 mps 753 mmHg 87%
    23:00 +18°C° 0 mm 2 mps 754 mmHg 90%

    Day after tomorrow, 23 April, Tuesday

    Time Temperature Precipitation Wind Pressure Humidity
    00:00 +17°C° 0 mm 2 mps 753 mmHg 92%
    01:00 +17°C° 0 mm 2 mps 753 mmHg 94%
    02:00 +16°C° 0 mm 2 mps 752 mmHg 96%
    03:00 +16°C° 0 mm 2 mps 752 mmHg 96%
    04:00 +16°C° 0 mm 2 mps 752 mmHg 97%
    05:00 +16°C° 0 mm 2 mps 752 mmHg 97%
    06:00 +17°C° 0 mm 2 mps 752 mmHg 92%
    07:00 +19°C° 0 mm 2 mps 752 mmHg 86%
    08:00 +20°C° 0 mm 2 mps 752 mmHg 80%
    09:00 +23°C° 0 mm 2 mps 752 mmHg 72%
    10:00 +25°C° 0 mm 2 mps 752 mmHg 64%
    11:00 +27°C° 0 mm 1 mps 752 mmHg 55%
    12:00 +28°C° 0 mm 1 mps 751 mmHg 52%
    13:00 +29°C° 0 mm 2 mps 751 mmHg 49%
    14:00 +30°C° 0 mm 2 mps 750 mmHg 45%
    15:00 +29°C° 0 mm 2 mps 750 mmHg 47%
    16:00 +29°C° 0 mm 2 mps 750 mmHg 49%
    17:00 +28°C° 0 mm 2 mps 749 mmHg 50%
    18:00 +27°C° 0 mm 2 mps 750 mmHg 54%
    19:00 +26°C° 0 mm 2 mps 750 mmHg 58%
    20:00 +25°C° 0 mm 2 mps 750 mmHg 62%
    21:00 +24°C° 0 mm 2 mps 751 mmHg 66%
    22:00 +23°C° 0 mm 2 mps 751 mmHg 70%
    23:00 +21°C° 0 mm 2 mps 751 mmHg 74%

    24 April, Wednesday

    Time Temperature Precipitation Wind Pressure Humidity
    00:00 +22°C° 0 mm 1 mps 751 mmHg 76%
    01:00 +21°C° 0 mm 1 mps 751 mmHg 78%
    02:00 +18°C° 0 mm 0 mps 751 mmHg 81%
    03:00 +18°C° 0 mm 0 mps 751 mmHg 82%
    04:00 +18°C° 0 mm 0 mps 751 mmHg 84%
    05:00 +18°C° 0 mm 0 mps 751 mmHg 85%
    06:00 +21°C° 0 mm 1 mps 752 mmHg 80%
    07:00 +23°C° 0 mm 1 mps 752 mmHg 74%
    08:00 +24°C° 0 mm 2 mps 753 mmHg 68%
    09:00 +26°C° 0 mm 2 mps 753 mmHg 61%
    10:00 +28°C° 0 mm 3 mps 753 mmHg 54%
    11:00 +30°C° 0 mm 3 mps 753 mmHg 47%
    12:00 +30°C° 0 mm 3 mps 752 mmHg 43%
    13:00 +31°C° 0 mm 3 mps 752 mmHg 39%
    14:00 +33°C° 0 mm 3 mps 751 mmHg 35%
    15:00 +33°C° 0 mm 3 mps 751 mmHg 35%
    16:00 +31°C° 0 mm 3 mps 751 mmHg 35%
    17:00 +31°C° 0 mm 3 mps 750 mmHg 36%
    18:00 +29°C° 0 mm 3 mps 751 mmHg 43%
    19:00 +27°C° 0 mm 4 mps 751 mmHg 51%
    20:00 +23°C° 0 mm 5 mps 752 mmHg 59%
    21:00 +20°C° 0.3 mm 6 mps 753 mmHg 62%
    22:00 +15°C° 0.3 mm 8 mps 754 mmHg 65%
    23:00 +11°C° 0.3 mm 9 mps 755 mmHg 68%

    25 April, Thursday

    Time Temperature Precipitation Wind Pressure Humidity
    00:00 +11°C° 0.6 mm 8 mps 755 mmHg 73%
    01:00 +10°C° 0.6 mm 7 mps 755 mmHg 78%
    02:00 +10°C° 0.6 mm 6 mps 754 mmHg 84%
    03:00 +9°C° 0.1 mm 6 mps 755 mmHg 83%
    04:00 +9°C° 0.1 mm 6 mps 755 mmHg 83%
    05:00 +9°C° 0.1 mm 7 mps 755 mmHg 83%
    06:00 +9°C° 0 mm 6 mps 755 mmHg 80%
    07:00 +9°C° 0 mm 6 mps 755 mmHg 77%
    08:00 +9°C° 0 mm 6 mps 756 mmHg 74%
    09:00 +11°C° 0 mm 6 mps 756 mmHg 67%
    10:00 +14°C° 0 mm 5 mps 756 mmHg 60%
    11:00 +16°C° 0 mm 5 mps 756 mmHg 54%
    12:00 +17°C° 0 mm 5 mps 756 mmHg 51%
    13:00 +20°C° 0 mm 5 mps 755 mmHg 47%
    14:00 +21°C° 0 mm 5 mps 755 mmHg 44%
    15:00 +21°C° 0 mm 5 mps 754 mmHg 44%
    16:00 +21°C° 0 mm 5 mps 754 mmHg 45%
    17:00 +21°C° 0 mm 5 mps 754 mmHg 45%
    18:00 +19°C° 0 mm 4 mps 754 mmHg 49%
    19:00 +18°C° 0 mm 3 mps 754 mmHg 53%
    20:00 +16°C° 0 mm 3 mps 755 mmHg 57%
    21:00 +16°C° 0.4 mm 3 mps 755 mmHg 64%
    22:00 +14°C° 0.4 mm 3 mps 755 mmHg 71%
    23:00 +14°C° 0.4 mm 3 mps 755 mmHg 77%

    26 April, Friday

    Time Temperature Precipitation Wind Pressure Humidity
    00:00 +13°C° 0.1 mm 3 mps 755 mmHg 77%
    01:00 +13°C° 0.1 mm 4 mps 755 mmHg 77%
    02:00 +12°C° 0.1 mm 4 mps 755 mmHg 76%
    03:00 +12°C° 0 mm 4 mps 756 mmHg 74%
    04:00 +11°C° 0 mm 4 mps 756 mmHg 71%
    05:00 +10°C° 0 mm 3 mps 756 mmHg 69%
    06:00 +11°C° 0 mm 4 mps 757 mmHg 66%
    07:00 +12°C° 0 mm 5 mps 758 mmHg 63%
    08:00 +13°C° 0 mm 6 mps 758 mmHg 61%
    09:00 +14°C° 0 mm 6 mps 759 mmHg 53%
    10:00 +16°C° 0 mm 6 mps 759 mmHg 45%
    11:00 +18°C° 0 mm 7 mps 760 mmHg 38%
    12:00 +20°C° 0 mm 6 mps 759 mmHg 35%
    13:00 +21°C° 0 mm 6 mps 759 mmHg 33%
    14:00 +22°C° 0 mm 6 mps 759 mmHg 31%
    15:00 +22°C° 0 mm 5 mps 758 mmHg 31%
    16:00 +22°C° 0 mm 5 mps 758 mmHg 32%
    17:00 +22°C° 0 mm 5 mps 758 mmHg 32%
    18:00 +20°C° 0 mm 4 mps 758 mmHg 37%
    19:00 +18°C° 0 mm 3 mps 759 mmHg 42%
    20:00 +16°C° 0 mm 3 mps 759 mmHg 46%
    21:00 +16°C° 0 mm 3 mps 760 mmHg 46%
    22:00 +14°C° 0 mm 3 mps 760 mmHg 46%
    23:00 +13°C° 0 mm 3 mps 760 mmHg 46%
    Show more